Regional Weather Roundup
Issued by NWS

Home | Current Version | Previous Version | Text Only | Print | Product List | Glossary Off
Versions: 1 2 3 4 5 6 7 8 9 10 11 12 13 14 15 16 17 18 19 20 21 22 23 24 25 26 27 28 29 30 31 32 33 34 35 36 37 38 39 40 41 42 43 44 45 46 47 48 49 50

000
ASUS45 KBOU 310907
RWRCO

WEATHER ROUNDUP FOR COLORADO
NATIONAL WEATHER SERVICE DENVER/BOULDER CO
300 AM MDT SUN AUG 31 2014

NOTE: "FAIR" INDICATES FEW OR NO CLOUDS BELOW 12000 FEET WITH NO
SIGNIFICANT WEATHER AND/OR OBSTRUCTIONS TO VISIBILITY.

COZ001>005-013-030-031-311000-
...NORTHWEST COLORADO...

CITY           SKY/WX    TMP DP  RH WIND       PRES   REMARKS
CRAIG          CLOUDY    59  47  64 N12G28    30.00R
HAYDEN         CLOUDY    59  43  55 E8        29.96F
MEEKER         CLOUDY    66  41  40 NW9       29.95F
MOUNT WERNER   NOT AVBL
STEAMBOAT SPGS CLOUDY    55  46  71 SW8       30.03R
WALDEN         CLOUDY    54  37  54 NW5       30.09F
$$

COZ006>008-011-311000-
...WEST CENTRAL VALLEYS...

CITY           SKY/WX    TMP DP  RH WIND       PRES   REMARKS
GRAND JUNCTION CLOUDY    68  41  37 SE14      29.87S
MONTROSE       MOCLDY    62  41  46 CALM      30.01R
EAGLE          MOCLDY    48  46  93 CALM      30.07F
RIFLE          CLOUDY    58  49  72 CALM      29.94S
DELTA          NOT AVBL
NUCLA          MOCLDY    63  37  39 SE3       30.04S
$$

COZ017>023-064>068-311000-
...SOUTHWEST COLORADO...

CITY           SKY/WX    TMP DP  RH WIND       PRES   REMARKS
DURANGO        CLEAR     49  38  65 CALM      30.12F
CORTEZ         CLEAR     55  43  63 E8        30.06R
PAGOSA SPRINGS CLEAR     48  34  58 CALM      30.19S
TELLURIDE      PTCLDY    59  34  38 CALM      30.26S
WOLF CREEK PAS CLEAR     45  28  53 SW29G37   30.44F
$$

COZ009-010-012-014-032>034-037-058>063-311000-
...CENTRAL COLORADO...

CITY           SKY/WX    TMP DP  RH WIND       PRES   REMARKS
ASPEN          MOCLDY    55  39  54 SW7       30.10F
BUENA VISTA    PTCLDY    44  38  80 NW6       30.14F
COPPER MTN     PTCLDY    52  30  43 SW16G26   30.38F
BERTHOUD PASS  FAIR      37  36  93 NW13G30   30.39F
COTTONWOOD PAS PTCLDY    57  32  38 CALM      30.25F
GUNNISON       PTCLDY    45  37  76 NE5       30.20S
KREMMLING      CLOUDY    50  43  76 NE3       30.10F
LEADVILLE      PTCLDY    42  33  70 VRB3      30.24F
MONARCH PASS   PTCLDY    45  30  57 SW37      30.50S
SALIDA         PTCLDY    51  42  70 CALM      30.19S
SUNLIGHT       CLOUDY    48  39  71 SW3       30.29S
WILKERSON PASS NOT AVBL
$$

COZ069>075-311000-
...SAN LUIS VALLEY/SANGRE DE CRISTO MOUNTAINS...

CITY           SKY/WX    TMP DP  RH WIND       PRES   REMARKS
ALAMOSA        PTCLDY    45  37  73 SW5       30.15F
LA VETA PASS   NOT AVBL
SAGUACHE       NOT AVBL
$$

COZ035-036-038>040-311000-
...NORTHERN COLORADO FRONT RANGE...

CITY           SKY/WX    TMP DP  RH WIND       PRES   REMARKS
DENVER INTL AP PTCLDY    59  45  59 SW7       29.92F
DMNS CITY PARK   N/A     57  47  70 N2        29.92S
AURORA         MOCLDY    59  44  58 S6        29.94F
FRONT RANGE AP NOT AVBL
ERIE MUNI ARPT PTCLDY    53  51  90 S5        29.92S
BOULDER MUN AP PTCLDY    59  48  67 S3        29.91F
CENTENNIAL     MOCLDY    60  43  53 SE7       29.95F
BROOMFIELD     PTCLDY    59  45  58 N7        29.95S
FORT COLLINS   CLOUDY    61  52  72 E7        29.91F
LONGMONT       CLOUDY    60  51  73 CALM      29.92F
$$

COZ041-046-047-076>085-087-088-311000-
...PIKES PEAK/PALMER DIVIDE AND SOUTHERN FOOTHILLS...

CITY           SKY/WX    TMP DP  RH WIND       PRES   REMARKS
COLO. SPRINGS  PTCLDY    59  43  55 N6        30.03S
A. F. ACADEMY  CLEAR     49  43  80 N8        30.04F
ELLICOTT       CLEAR     59  45  59 SE7       30.00S
FALCON         CLEAR     58  41  54 S6        30.07S
FORT CARSON    CLEAR     61  41  47 W8        30.00S
LIMON          CLEAR     49  46  90 NW3       29.95F
MONUMENT HILL  PTCLDY    52  41  66 S9        30.04F
TRINIDAD       CLEAR     63  38  39 SW5       30.00F
$$

COZ042>045-048>051-090-091-311000-
...NORTHEAST COLORADO...

CITY           SKY/WX    TMP DP  RH WIND       PRES   REMARKS
GREELEY ARPT   CLOUDY    57  50  77 NE6       29.90F
AKRON          CLEAR     64  50  60 S13       29.88F
BURLINGTON     PTCLDY    60  55  83 E6        29.90R
WRAY             N/A     70  51  51 CALM      29.85S
STERLING       CLEAR     61  54  77 CALM      29.84R
HOLYOKE        MOCLDY    64  52  63 S9        29.84S
FORT MORGAN    CLEAR     58  52  80 W9        29.88S
$$

COZ086-089-092>099-311000-
...SOUTHEAST COLORADO...

CITY           SKY/WX    TMP DP  RH WIND       PRES   REMARKS
PUEBLO         CLEAR     62  44  51 CALM      29.93S
LA JUNTA       CLEAR     66  52  60 SW5       29.89S
LAMAR          CLEAR     60  54  80 N3        29.82F
SPRINGFIELD      N/A     68  50  52 S15       29.90F
$$


USA.gov is the U.S. government's official web portal to all federal, state and local government web resources and services.